Darwin, Northern Territory

8:42 PM ACST on September 29, 2016 (GMT +0930)
Darwin

Weather History for 94120 - October, 2013

Change the Weather History Date:

Sunday, October 13, 2013

  Actual Average Record
Temperature  
Mean Temperature 85 °F -  
Max Temperature 93 °F - - ()
Min Temperature 77 °F - - ()
Cooling Degree Days 20    
Growing Degree Days 35 (Base 50)    
Moisture  
Dew Point 71 °F    
Average Humidity 62    
Maximum Humidity 89    
Minimum Humidity 32    
Precipitation  
Precipitation 0.00 in - - ()
Sea Level Pressure  
Sea Level Pressure 29.81 in    
Wind  
Wind Speed 8 mph ()    
Max Wind Speed 17 mph    
Max Gust Speed -    
Visibility 8.4 miles    
Events      
T = Trace of Precipitation, MM = Missing Value Source: Averaged Metar Reports

Daily Weather History Graph

Daily Weather History Graph

Search for Another Location

Airport or City:

Trip Planner

Search our weather history database for the weather conditions in past years. The results will help you decide how hot, cold, wet, or windy it might be!

Date:

Astronomy

Oct. 13, 2013 Rise Set
Actual Time 6:22 AM ACST 6:43 PM ACST
Civil Twilight 6:01 AM ACST 7:04 PM ACST
Nautical Twilight 5:36 AM ACST 7:29 PM ACST
Astronomical Twilight 5:11 AM ACST 7:54 PM ACST
Moon 1:35 PM ACST (10/13) 1:33 AM ACST (10/13)
Length of Visible Light 13h 03m
Length of Day
12h 20m
Waxing Gibbous, 63% of the Moon is Illuminated
Oct 13
Waxing Gibbous
Oct 19
Full
Oct 27
Last Quarter
Nov 3
New
Nov 10
First Quarter

Hourly Weather History & Observations

Time (ACST) Temp. Heat Index Dew Point Humidity Pressure Visibility Wind Dir Wind Speed Gust Speed Precip Events Conditions
12:00 AM 83 °F - 74 °F 68% 29.82 in 19 mi West 6.9 mph - -   Partly Cloudy
12:00 AM 82.4 °F 88.2 °F 73.4 °F 74% 29.80 in 6.2 mi West 6.9 mph - N/A   Scattered Clouds
12:30 AM 83 °F - 74 °F 66% 29.81 in - West 6.9 mph - -  
12:30 AM 82.4 °F 88.2 °F 73.4 °F 74% 29.80 in 6.2 mi West 6.9 mph - N/A   Scattered Clouds
1:00 AM 82.4 °F 88.2 °F 73.4 °F 74% 29.80 in 6.2 mi West 6.9 mph - N/A   Scattered Clouds
1:30 AM 82.4 °F 88.2 °F 73.4 °F 74% 29.80 in - WSW 5.8 mph - N/A   Clear
2:00 AM 82.4 °F 89.5 °F 75.2 °F 79% 29.77 in 6.2 mi West 5.8 mph - N/A   Scattered Clouds
2:30 AM 80.6 °F 86.2 °F 75.2 °F 84% 29.77 in - West 4.6 mph - N/A   Clear
3:00 AM 79 °F - 74 °F 80% 29.78 in 19 mi WNW 4.6 mph - -   Partly Cloudy
3:00 AM 78.8 °F - 73.4 °F 83% 29.77 in 6.2 mi WNW 4.6 mph - N/A   Scattered Clouds
3:30 AM 78 °F - 74 °F 83% 29.78 in - North 4.6 mph - -  
3:30 AM 78.8 °F - 73.4 °F 83% 29.77 in 6.2 mi North 4.6 mph - N/A   Scattered Clouds
4:00 AM 78.8 °F - 73.4 °F 83% 29.77 in 6.2 mi ENE 4.6 mph - N/A   Partly Cloudy
4:30 AM 78.8 °F - 73.4 °F 83% 29.80 in 6.2 mi East 5.8 mph - N/A   Partly Cloudy
5:00 AM 78.8 °F - 73.4 °F 83% 29.80 in - East 4.6 mph - N/A   Clear
5:30 AM 77.0 °F - 73.4 °F 89% 29.80 in - ENE 4.6 mph - N/A   Clear
6:00 AM 78 °F - 74 °F 83% 29.82 in 19 mi ENE 5.8 mph - -   Partly Cloudy
6:00 AM 77.0 °F - 73.4 °F 89% 29.80 in 6.2 mi ENE 5.8 mph - N/A   Partly Cloudy
6:30 AM 78 °F - 74 °F 84% 29.82 in - North 3.5 mph - -  
6:30 AM 77.0 °F - 73.4 °F 89% 29.83 in 6.2 mi North 3.5 mph - N/A   Partly Cloudy
7:00 AM 78.8 °F - 75.2 °F 89% 29.83 in 6.2 mi NE 3.5 mph - N/A   Partly Cloudy
7:30 AM 80.6 °F 86.2 °F 75.2 °F 84% 29.83 in 6.2 mi Calm Calm - N/A   Partly Cloudy
8:00 AM 84.2 °F 92.3 °F 75.2 °F 74% 29.83 in 6.2 mi North 4.6 mph - N/A   Partly Cloudy
8:30 AM 84.2 °F 92.3 °F 75.2 °F 74% 29.86 in 6.2 mi North 5.8 mph - N/A   Partly Cloudy
9:00 AM 86.0 °F 93.4 °F 73.4 °F 66% 29.86 in 6.2 mi NW 6.9 mph - N/A   Partly Cloudy
9:30 AM 87 °F - 72 °F 53% 29.87 in - North 5.8 mph - -  
9:30 AM 87.8 °F 93.8 °F 71.6 °F 58% 29.86 in 6.2 mi North 5.8 mph - N/A   Partly Cloudy
10:00 AM 87.8 °F 92.6 °F 69.8 °F 55% 29.86 in 6.2 mi NNW 8.1 mph - N/A   Partly Cloudy
10:30 AM 89.6 °F 94.7 °F 69.8 °F 52% 29.86 in 6.2 mi NNW 11.5 mph - N/A   Partly Cloudy
11:00 AM 89.6 °F 94.7 °F 69.8 °F 52% 29.86 in 6.2 mi NW 10.4 mph - N/A   Partly Cloudy
11:30 AM 91.4 °F 96.8 °F 69.8 °F 49% 29.86 in 6.2 mi NNW 12.7 mph - N/A   Partly Cloudy
12:00 PM 92 °F - 69 °F 38% 29.85 in 19 mi North 13.8 mph - -   Partly Cloudy
12:00 PM 91.4 °F 96.8 °F 69.8 °F 49% 29.86 in 6.2 mi North 13.8 mph - N/A   Partly Cloudy
12:30 PM 91 °F - 69 °F 39% 29.84 in - NNW 16.1 mph - -  
12:30 PM 91.4 °F 96.8 °F 69.8 °F 49% 29.83 in 6.2 mi NNW 16.1 mph - N/A   Partly Cloudy
1:00 PM 91.4 °F 96.8 °F 69.8 °F 49% 29.83 in 6.2 mi NNW 17.3 mph - N/A   Partly Cloudy
1:30 PM 91.4 °F 95.4 °F 68.0 °F 46% 29.80 in 6.2 mi NNW 15.0 mph - N/A   Partly Cloudy
2:00 PM 93.2 °F 97.7 °F 68.0 °F 44% 29.77 in 6.2 mi NNW 16.1 mph - N/A   Partly Cloudy
2:30 PM 93.2 °F 97.7 °F 68.0 °F 44% 29.77 in 6.2 mi NNE 12.7 mph - N/A   Partly Cloudy
3:00 PM 93 °F - 67 °F 32% 29.76 in 19 mi North 13.8 mph - -   Partly Cloudy
3:00 PM 93.2 °F 96.2 °F 66.2 °F 41% 29.77 in 6.2 mi North 13.8 mph - N/A   Partly Cloudy
3:30 PM 92 °F - 66 °F 32% 29.76 in - North 16.1 mph - -  
3:30 PM 93.2 °F 96.2 °F 66.2 °F 41% 29.74 in 6.2 mi North 16.1 mph - N/A   Partly Cloudy
4:00 PM 91.4 °F 93.2 °F 64.4 °F 41% 29.74 in 6.2 mi NNE 16.1 mph - N/A   Partly Cloudy
4:30 PM 93.2 °F 94.1 °F 62.6 °F 36% 29.74 in - NNE 16.1 mph - N/A   Clear
5:00 PM 91.4 °F 94.0 °F 66.2 °F 43% 29.74 in - NNE 16.1 mph - N/A   Clear
5:30 PM 91.4 °F 94.0 °F 66.2 °F 43% 29.74 in - NNE 16.1 mph - N/A   Clear
6:00 PM 89 °F - 68 °F 40% 29.77 in 19 mi NNE 12.7 mph - -   Partly Cloudy
6:00 PM 89.6 °F 93.4 °F 68.0 °F 49% 29.77 in - NNE 12.7 mph - N/A   Clear
6:30 PM 88 °F - 68 °F 42% 29.78 in - NNE 11.5 mph - -  
6:30 PM 87.8 °F 91.4 °F 68.0 °F 52% 29.77 in - NNE 11.5 mph - N/A   Clear
7:00 PM 87.8 °F 91.4 °F 68.0 °F 52% 29.77 in - NNE 10.4 mph - N/A   Clear
7:30 PM 86.0 °F 91.8 °F 71.6 °F 62% 29.80 in - NNE 11.5 mph - N/A   Clear
8:00 PM 86.0 °F 91.8 °F 71.6 °F 62% 29.80 in - NNE 8.1 mph - N/A   Clear
8:30 PM 86.0 °F 90.4 °F 69.8 °F 58% 29.83 in 6.2 mi West 5.8 mph - N/A   Mostly Cloudy
9:00 PM 86 °F - 71 °F 52% 29.84 in 19 mi West 6.9 mph - -   Partly Cloudy
9:00 PM 86.0 °F 91.8 °F 71.6 °F 62% 29.83 in - West 6.9 mph - N/A   Clear
9:30 PM 85 °F - 73 °F 59% 29.85 in - WNW 9.2 mph - -  
9:30 PM 86.0 °F 93.4 °F 73.4 °F 66% 29.83 in - WNW 9.2 mph - N/A   Clear
10:00 PM 84.2 °F 90.9 °F 73.4 °F 70% 29.86 in - WNW 11.5 mph - N/A   Clear
10:30 PM 84.2 °F 90.9 °F 73.4 °F 70% 29.86 in 6.2 mi WNW 12.7 mph - N/A   Mostly Cloudy
11:00 PM 84.2 °F 92.3 °F 75.2 °F 74% 29.86 in 6.2 mi WNW 12.7 mph - N/A   Mostly Cloudy
11:30 PM 84.2 °F 92.3 °F 75.2 °F 74% 29.86 in 6.2 mi WNW 12.7 mph - N/A   Scattered Clouds